Regional Weather Roundup
Issued by NWS Binghamton, NY

Home | Current Version | Previous Version | Text Only | Print | Product List | Glossary On
Versions: 1 2 3 4 5 6 7 8 9 10 11 12 13 14 15 16 17 18 19 20 21 22 23 24 25 26 27
000
ASUS41 KBGM 290010
RWRBGM

REGIONAL WEATHER ROUNDUP
NATIONAL WEATHER SERVICE BINGHAMTON NY
800 PM EDT THU JUL 28 2016

Note: "fair" indicates few or no clouds below 12,000 feet with no
significant weather and/or obstructions to visibility.

* = Station(s) that does not report precipitation, such as rain,
snow, etc, also no thunder or fog.

NYZ009-015>018-022>025-036-037-044>046-055>057-062-290100
...Central New York...

CITY           SKY/WX    TMP DP  RH WIND       PRES   REMARKS
Binghamton     CLOUDY    77  62  59 N3        29.93R
Cortland       FAIR      77  68  73 N3        29.92R
Dansville      CLOUDY    78  68  71 N5        29.90R
Elmira         CLOUDY    79  65  62 N5        29.89R
Ithaca         CLOUDY    76  68  76 N5        29.92R
Hamilton       CLEAR     75  66  73 CALM      29.92S
Hornell        PTCLDY    75  70  83 CALM      29.95R
Monticello     CLOUDY    72  66  83 S3        29.95R
Norwich        CLEAR     75  68  78 CALM      29.91S
Oneonta        CLEAR     75  64  69 CALM      29.94S
Penn Yan       CLOUDY    78  58  49 N3        29.92R
Rome           CLOUDY    78  67  68 CALM      29.88S
Sidney         MOCLDY    77  77 100 CALM      29.90S
Syracuse       CLOUDY    77  64  64 NW3       29.88R
$$

PAZ038>040-043-044-047-048-072-290100
...Northeast Pennsylvania...

CITY           SKY/WX    TMP DP  RH WIND       PRES   REMARKS
Hazleton       CLOUDY    72  66  83 CALM      29.97R
Scranton       MOCLDY    78  67  68 VRB3      29.90R
$$
&&
KEY
WCI = Wind Chill Index
VSB = Visibility
HX  = Heat Index
$$




USA.gov is the U.S. government's official web portal to all federal, state and local government web resources and services.